Regional Weather Roundup
Issued by NWS Wakefield, VA

Home | Current Version | Previous Version | Graphics & Text | Print | Product List | Glossary On
Versions: 1 2 3 4 5 6 7 8 9 10 11 12 13 14 15 16 17 18 19 20 21 22 23 24 25 26 27 28 29 30 31 32 33 34 35 36 37 38 39 40 41 42 43 44 45 46 47 48 49 50
000
ASUS41 KAKQ 240915
RWRAKQ

REGIONAL WEATHER ROUNDUP
NATIONAL WEATHER SERVICE WAKEFIELD VA
500 AM EDT SUN MAY 24 2015

Note: "fair" indicates few or no clouds below 12,000 feet with no
significant weather and/or obstructions to visibility. * = Denotes
station may not report precipitation (e.g., rain,snow,etc.),
thunder or fog.

VAZ042-051-052>054-056-241000-
NORTHERN VIRGINIA

CITY           SKY/WX    TMP DP  RH WIND       PRES   REMARKS
WASH NATIONAL  PTCLDY    58  47  66 SW3       30.39R
DULLES         PTCLDY    51  47  86 CALM      30.37S
FORT BELVOIR   CLEAR     49  47  92 CALM      30.38S
QUANTICO       CLEAR     55  50  83 W3        30.39S
FREDERICKSBRG* PTCLDY    55  51  87 CALM      30.38S
STAFFORD*      CLOUDY    48  46  93 CALM      30.43R
WARRENTON      CLEAR     49  48  97 CALM      30.37S
CULPEPER*      CLEAR     47  46  99 CALM      30.39S
MANASSAS*        N/A    N/A N/A N/A MISG        N/A
LEESBURG*      CLEAR     50  50 100 CALM      30.38S
WINCHESTER     CLEAR     50  45  81 CALM      30.36R
FRONT ROYAL*   FAIR      50  48  93 S3        30.35S
LURAY*         FAIR      52  52 100 CALM      30.37S
$$

VAZ048-049-060>072-079>083-241000-
CENTRAL AND SOUTH CENTRAL VIRGINIA

CITY           SKY/WX    TMP DP  RH WIND       PRES   REMARKS
RICHMOND       PTCLDY    54  48  80 CALM      30.39S
CHESTERFIELD*  NOT AVBL
PETERSBURG*    CLEAR     49  48  95 CALM      30.39S
HANOVER        CLEAR     54  48  80 CALM      30.40S
TAPPAHANNOCK*  CLEAR     54  47  78 CALM      30.39S
QUINTON*       FAIR      54  47  78 SE5       30.39F
CHARLOTTSVILLE CLEAR     50  48  93 CALM      30.37S
GORDONSVILLE*  FAIR      48  47  96 CALM      30.38R
ORANGE*        CLEAR     52  50  93 CALM      30.39S
LOUISA*        CLEAR     48  46  93 CALM      30.37S
BUMPASS*       FAIR      50  48  93 CALM      30.38S
FARMVILLE*     CLEAR     49  49 100 CALM      30.37R FOG
CREWE*         FAIR      52  51  95 CALM      30.38R
FORT PICKETT*  FAIR     N/A N/A N/A S9        30.38S
CHASE CITY*    FAIR      55  55 100 SE3       30.38S
CLARKSVILLE*   FAIR      54  54 100 CALM      30.38R
SOUTH HILL*    CLEAR     50  49  95 CALM      30.44S
LAWRENCEVILLE* FAIR      54  52  94 CALM      30.38S
EMPORIA*       CLEAR     45  45 100 CALM      30.41S
$$

VAZ088>098-241000-
SOUTHEAST VIRGINIA

CITY           SKY/WX    TMP DP  RH WIND       PRES   REMARKS
NORFOLK        CLEAR     56  52  86 S3        30.40S
VIRGINIA BEACH CLEAR     56  51  84 CALM      30.40S
NORFOLK NAVAL  PTCLDY    60  53  77 SE3       30.41F
WEST POINT*    PTCLDY    61  50  67 S6        30.41S
SALUDA*        FAIR      55  48  76 S6        30.39S
NEWPORT NEWS   MOCLDY    55  49  80 CALM      30.40S
LANGLEY AFB    CLEAR     56  53  88 SE3       30.39S
FORT EUSTIS    CLOUDY    60  57  89 SE6       30.38S
WILLIAMSBURG*  CLEAR     63  55  77 S6        30.40F
HR EXEC AP*    FAIR      48  45  87 CALM      30.42S
FRANKLIN*      CLEAR     49  47  94 CALM      30.40S
WAKEFIELD      CLEAR     51  48  89 CALM      30.39S
$$

VAZ020-022-025-037-045-241000-
WEST CENTRAL AND SOUTHWEST VIRGINIA

CITY           SKY/WX    TMP DP  RH WIND       PRES   REMARKS
STAUNTON*      CLEAR     49  46  91 CALM      30.40R
WAYNESBORO*    FAIR      50  47  88 CALM      30.37S
HOT SPRINGS VA CLEAR     55  44  66 SW13      30.41S
LYNCHBURG      CLEAR     49  48  97 CALM      30.39R
DANVILLE       CLEAR     51  48  89 CALM      30.38R
SOUTH BOSTON*  FAIR      52  50  95 CALM      30.38R
MARTINSVILLE   CLEAR     47  47 100 CALM      30.40S
ROANOKE        CLEAR     52  49  89 CALM      30.39S
BLACKSBURG     CLEAR     47  46  96 CALM      30.41F
DUBLIN*        CLEAR     49  49  99 CALM      30.40S
MARION*        CLEAR     51  44  77 CALM      30.42S
HILLSVILLE*    CLEAR     55  46  69 S6        30.40S
RICHLANDS*     FAIR      61  42  49 S3        30.37F
WISE*          CLEAR     57  41  54 SW5       30.37S
ABINGDON*      CLEAR     55  46  72 E3        30.36S
$$

MDZ021>025-VAZ099-100-241000-
SOUTHERN MARYLAND AND THE DELMARVA PENINSULA

CITY           SKY/WX    TMP DP  RH WIND       PRES   REMARKS
PATUXENT RIVER CLEAR     54  51  90 CALM      30.38S
BAY BRIDGE APT   N/A    N/A N/A N/A S6        30.38S
LEONARDTOWN    PTCLDY    54  48  82 CALM      30.40S
DOVER          CLEAR     53  53 100 S7        30.35S
GEORGETOWN     CLEAR     48  46  93 CALM      30.40S
EASTON         CLEAR     54  54 100 CALM      30.42S
CAMBRIDGE      CLEAR     52  48  87 SE3       30.38S
SALISBURY      CLEAR     45  43  93 CALM      30.40S
OCEAN CITY     CLEAR     46  44  93 CALM      30.41S
WALLOPS ISLAND CLEAR     56  53  90 S7        30.41S
ACCOMACK*      CLEAR     52  50  93 S3        30.40S
$$

NCZ012>017-030>032-241000-
NORTH CENTRAL AND EASTERN NORTH CAROLINA

CITY           SKY/WX    TMP DP  RH WIND       PRES   REMARKS
ROANOKE RAPIDS FAIR      50  50 100 CALM      30.39S
RALEIGH        PTCLDY    56  53  90 CALM      30.39R
ELIZABETH CITY CLEAR     58  54  86 E5        30.40S
AHOSKIE*       CLEAR     50  48  92 CALM      30.40S
EDENTON*       CLEAR     54  51  92 CALM      30.40S
CURRITUCK*     CLEAR     55  52  90 CALM      30.41S
KILL DEVIL HLS CLEAR     60  55  84 E3        30.39S
MANTEO         CLEAR     60  55  83 E6        30.40S
CAPE HATTERAS  CLEAR     61  56  83 NE6       30.39R
TARBORO*       FOG       52  51  96 CALM      30.40S VSB 1
GOLDSBORO      CLEAR     55  53  93 CALM      30.37R
WASHINGTON     CLEAR     54  51  90 CALM      30.39S
GREENVILLE     CLEAR     54  54 100 CALM      30.39S
NEW BERN       CLEAR     57  53  86 CALM      30.39S
WILMINGTON     PTCLDY    61  59  93 NE3       30.37R
$$

VAZ048-241000-
ELSEWHERE

CITY           SKY/WX    TMP DP  RH WIND       PRES   REMARKS
HARRISBURG PA  PTCLDY    49  42  77 CALM      30.35F
BALTIMORE      PTCLDY    50  44  80 CALM      30.38R
ANNAPOLIS      CLEAR     54  47  77 CALM      30.38R
ANDREWS AFB    CLEAR     49  44  83 S5        30.37S
PHILADELPHIA   PTCLDY    53  47  79 S6        30.38S
HENDERSON NC   CLEAR     55  52  89 S5        30.39R
GREENSBORO     CLEAR     57  49  74 SW5       30.38R
ROCKY MOUNT    CLEAR     54  52  93 CALM      30.39S
$$

VAZ100-241000-
MARINE

STATION/POSITION TIME  TEMP    WIND        PRES    WAVE   SWELL
                       AIR SEA DIR/SP/G            HT/PER HT/PER
                 (UTC) (F)     (DEG/KT/KT) (MB)    (FT/S) (FT/S)
BRANDYWINE LGT   0800   57 62  230/ 13/ 15 1029.1F
CAPE MAY NJ      0800   58 66  210/  9/ 12 1028.8F
LEWES DE         0800   54 63  210/  5/  7 1029.0F
15NM E FENWICK I 0850   59 59              1029.4S   1/ 7
OCEAN-CITY-INLET 0800   57 61  240/  5/  6 1029.2S
WACHAPREAGUE VA  0800   61 66  200/  6/  9 1029.6R
THOMAS POINT MD  0900   62 65  200/ 13/ 15 1029.4R
GOOSES REEF MD   0900   62 65  200/ 12/ 14 1029.6F   1/ 3
SOLOMONS ISLAND  0800      68                N/A
BISHOPS HEAD MD  0800   63 65  180/ 12/ 14 1028.6S
PINEY POINT MD   0800          190/  6/  7   N/A
CAMBRIDGE MD     0800   54 70  120/  2/  2 1028.8F
LEWISETTA VA     0800   59 67              1028.6F
RAPPAHANNOCK LGT 0800          170/ 12/ 13 1029.8S
STINGRAY PT      0900   63 68  200/ 10/ 12 1028.6S   1/ 2
YORK RVR RNG VA  0800   62     200/ 11/ 12 1028.7S
YORKTOWN VA      0800   60 70  160/  2/  4 1029.1R
JAMESTOWN VA     0900   60 73  160/  8/ 10 1028.2S
DOMINION TERM VA 0800   61     150/ 10/ 11 1029.4F
KIPTOPEKE VA     0800      72  140/  7/  9   N/A
CHES BAY BRIDGE  0800   62 65  150/  8/ 10 1029.1R
CAPE HENRY VA    0800   59     170/  5/  6 1028.2S
CHESAPEAKE LGHT  0800   61     150/ 11/ 12 1030.2R
WILLOUBY STN VA  0800   60     170/  6/  7 1030.1R
CAPE HENRY BUOY  0828      61                N/A     2/ 6
1ST LANDING BUOY 0900      66              1029.2R
CAPE CHARLES BUO 0826      64                N/A     2/ 6   2/ 6
OFFSHORE WE BUOY 0811      60                N/A     2/ 6   2/ 6
64NM E OF VA BCH 0850   61 60  110/  6/  6 1029.5R   2/ 6   2/ 6
DUCK PIER NC     0800   61 64  100/ 10/ 11 1028.4F
44100 DUCK FRF   0824      62                N/A     2/ 6
44056 DUCK FRF   0811      63                N/A     2/ 6
OREGON INLET NC  0800   63 71   60/  8/ 10 1029.1F
HATTERAS NC      0800   64 73   70/  5/  7 1028.2F
DIAMOND SHLS NC  0850   72 77  100/  4/  6 1028.8R   3/ 6   2/ 6
CAPE LOOKOUT NC  0900   72     120/  6/  6 1028.4R
$$


USA.gov is the U.S. government's official web portal to all federal, state and local government web resources and services.